[Iaude] MPEC J68: 2024 JK1 [a=1.08,e=0.31,i=2.3,H=26.6]

mpec at cfa.harvard.edu mpec at cfa.harvard.edu
Sat May 4 17:57:53 EDT 2024


M.P.E.C. 2024-J68                                   Issued 2024 May 4, 21:56 UT

     The Minor Planet Electronic Circulars contain information on unusual
         minor planets, routine data on comets and natural satellites,
         and occasional editorial announcements.  They are published
    on behalf of Division F of the International Astronomical Union by the
          Minor Planet Center, Smithsonian Astrophysical Observatory,
                          Cambridge, MA 02138, U.S.A.
			  
             Prepared using the Tamkin Foundation Computer Network

                              MPC at CFA.HARVARD.EDU
            URL https://www.minorplanetcenter.net/    ISSN 1523-6714

                                    2024 JK1                                    


Observations:
     K24J01K*1C2024 05 03.39773715 47 07.843+11 21 33.37         21.12GVEJ068G96
     K24J01K 1C2024 05 03.40288915 47 08.426+11 22 25.28         21.31GVEJ068G96
     K24J01K 1C2024 05 03.40804115 47 08.977+11 23 16.26         21.47GVEJ068G96
     K24J01K 1C2024 05 03.41320215 47 09.614+11 24 08.17         21.21GVEJ068G96
     K24J01K KC2024 05 03.46340715 47 15.630+11 32 32.10         21.33GVEJ068I52
     K24J01K KC2024 05 03.46680615 47 16.060+11 33 06.50         21.02GVEJ068I52
     K24J01K KC2024 05 04.29930615 50 16.616+14 09 37.98         20.93GVEJ068I52
     K24J01K KC2024 05 04.30117115 50 16.897+14 10 01.06         20.84GVEJ068I52
     K24J01K KC2024 05 04.30304815 50 17.156+14 10 25.54         20.32GVEJ068I52
     K24J01K KC2024 05 04.30491715 50 17.491+14 10 48.32         20.03GVEJ068I52
     K24J01K !C2024 05 04.38667 15 50 31.19 +14 27 51.1          20.4 GVEJ068673
     K24J01K !C2024 05 04.38996 15 50 31.66 +14 28 32.1                VEJ068673
     K24J01K 1C2024 05 04.89962 15 52 46.44 +16 22 32.5          21.1 VXEJ068033
     K24J01K 1C2024 05 04.90076 15 52 46.69 +16 22 49.0          21.1 VXEJ068033

Observer details:
033 Karl Schwarzschild Observatory, Tautenburg.  Observers S. Melnikov, C.
    Hogner, F. Ludwig, M. Hartmann, B. Stecklum.  Measurer B. Stecklum.
    1.34-m f/3 Schmidt + CCD.
673 Table Mountain Observatory, Wrightwood.  Observer J. Pittichova.  1.0-m
    f/15 reflector + CCD.
G96 Mt. Lemmon Survey.  Observer H. Groeller.  Measurers T. Beuden, V. F.
    Carvajal, D. Fay, J. B. Fazekas, D. C. Fuls, A. R. Gibbs, A. D. Grauer, H.
    Groeller, J. K. Hogan, R. A. Kowalski, S. M. Larson, G. J. Leonard, D.
    Rankin, R. L. Seaman, F. C. Shelly, K. W. Wierzchos.  1.5-m reflector +
    10K CCD.
I52 Steward Observatory, Mt. Lemmon Station.  Observer V. F. Carvajal.
    Measurers T. Beuden, V. F. Carvajal, D. Fay, J. B. Fazekas, D. C. Fuls, A.
    R. Gibbs, A. D. Grauer, H. Groeller, J. K. Hogan, R. A. Kowalski, S. M.
    Larson, G. J. Leonard, D. Rankin, R. L. Seaman, F. C. Shelly, K. W.
    Wierzchos.  1.0-m prime focus + CCD.

Orbital elements:
2024 JK1                                                 Earth MOID = 0.0133 AU
Epoch 2024 Mar. 31.0 TT = JDT 2460400.5                 MPC                     
M 264.73259              (2000.0)            P               Q                  
n   0.87335269     Peri.  249.52522     +0.81781052     +0.57412294             
a   1.0839509      Node    75.41669     -0.51157514     +0.75678570             
e   0.3060872      Incl.    2.34558     -0.26358458     +0.31250322             
P   1.13           H   26.64          G   0.15           U   8                  
Residuals in seconds of arc
240503 G96  0.1-  0.1+    240503 I52  0.0   0.1-    240504 673  0.4+  0.2+
240503 G96  0.0   0.5+    240504 I52  0.2-  0.1-    240504 673  0.1-  0.5-
240503 G96  0.4-  0.1-    240504 I52  0.2-  0.4-    240504 033  0.2-  0.1+
240503 G96  0.4+  0.1+    240504 I52  0.5-  0.6+    240504 033  0.2-  0.1-
240503 I52  0.0   0.3-    240504 I52  0.3+  0.0

Ephemeris:
2024 JK1                 a,e,i = 1.08, 0.31, 2                   q = 0.7522
Date    TT    R. A. (2000) Decl.     Delta      r    Elong.  Phase     V
2024 04 04    15 17 11.2 -07 34 18   0.2238  1.1888   144.1    29.5    25.1
...
2024 04 19    15 28 52.3 -03 52 08   0.1263  1.1193   154.0    23.1    23.5
...
2024 04 27    15 35 50.2 +01 02 14   0.07950 1.0794   155.7    22.6    22.4
...
2024 05 03    15 46 02.7 +10 18 48   0.04674 1.0486   149.5    29.2    21.4
2024 05 04    15 49 07.6 +13 10 52   0.04159 1.0434   146.8    31.9    21.2
2024 05 05    15 53 06.8 +16 49 14   0.03659 1.0382   143.3    35.5    21.0
...
2024 05 11    19 49 43.6 +74 18 24   0.01769 1.0065    78.2   100.8    21.6
...
2024 05 19    03 01 01.6 +30 52 57   0.04934 0.9640    14.7   164.5    32.9
...
2024 06 03    03 20 13.5 +18 07 04   0.1377  0.8864    20.2   156.7    32.0

A. U. Tomatic                (C) Copyright 2024 MPC           M.P.E.C. 2024-J68





More information about the Iaude mailing list